contact:dominique.lefevre@mio.osupytheas.fr, maurice.libes@osupytheas.fr, didier.mallarino@osupytheas.fr
Project:EMSO http://www.emso-fr.org/EMSO-France
Depth: 2436.0 m
Title:EMSO Ligure Ouest : Data MII capteur CSTAR
DateTime,Latitude,Longitude,Instrument_Serial,Reference_Counts,Signal_Counts,Corrected_Signal_raw_counts,Calculated_Beam_c_inverse_meters,Internal_thermistor_counts
DateTime,Latitude,Longitude,Instrument_Serial,Reference_Counts,Signal_Counts,Corrected_Signal_raw_counts,Calculated_Beam_c_inverse_meters,Internal_thermistor_counts
2020-03-27T00:02:32,42.805,6.029,CST-1368DR,6559,9198,15210,0.105,551
2020-03-27T00:05:33,42.805,6.029,CST-1368DR,6559,9197,15208,0.106,551
2020-03-27T00:08:35,42.805,6.029,CST-1368DR,6559,9198,15209,0.106,551
2020-03-27T00:11:37,42.805,6.029,CST-1368DR,6559,9199,15212,0.105,551
2020-03-27T00:14:38,42.805,6.029,CST-1368DR,6559,9198,15210,0.105,551
2020-03-27T00:17:40,42.805,6.029,CST-1368DR,6559,9197,15209,0.106,551
2020-03-27T00:20:42,42.805,6.029,CST-1368DR,6559,9192,15199,0.108,551
2020-03-27T00:23:43,42.805,6.029,CST-1368DR,6559,9198,15210,0.105,551
2020-03-27T00:26:45,42.805,6.029,CST-1368DR,6559,9194,15203,0.107,551
2020-03-27T00:29:47,42.805,6.029,CST-1368DR,6559,9197,15207,0.106,551
2020-03-27T00:32:48,42.805,6.029,CST-1368DR,6559,9196,15207,0.106,551
2020-03-27T00:35:50,42.805,6.029,CST-1368DR,6559,9195,15205,0.107,550
2020-03-27T00:38:52,42.805,6.029,CST-1368DR,6559,9198,15210,0.105,551
2020-03-27T00:41:54,42.805,6.029,CST-1368DR,6559,9198,15210,0.105,551
2020-03-27T00:44:55,42.805,6.029,CST-1368DR,6559,9199,15211,0.105,550
2020-03-27T00:47:57,42.805,6.029,CST-1368DR,6559,9197,15208,0.106,551
2020-03-27T00:50:59,42.805,6.029,CST-1368DR,6559,9198,15210,0.105,551
2020-03-27T00:54:01,42.805,6.029,CST-1368DR,6559,9198,15210,0.105,551
2020-03-27T00:57:02,42.805,6.029,CST-1368DR,6559,9198,15210,0.105,551
2020-03-27T01:00:04,42.805,6.029,CST-1368DR,6559,9197,15207,0.106,551
2020-03-27T01:03:06,42.805,6.029,CST-1368DR,6559,9198,15209,0.106,551
2020-03-27T01:06:07,42.805,6.029,CST-1368DR,6559,9197,15208,0.106,551
2020-03-27T01:09:09,42.805,6.029,CST-1368DR,6559,9197,15208,0.106,551
2020-03-27T01:12:11,42.805,6.029,CST-1368DR,6559,9197,15209,0.106,551
2020-03-27T01:15:12,42.805,6.029,CST-1368DR,6559,9198,15210,0.105,551
2020-03-27T01:18:14,42.805,6.029,CST-1368DR,6559,9192,15200,0.108,551
2020-03-27T01:21:16,42.805,6.029,CST-1368DR,6559,9199,15211,0.105,551
2020-03-27T01:24:18,42.805,6.029,CST-1368DR,6559,9199,15211,0.105,551
2020-03-27T01:27:19,42.805,6.029,CST-1368DR,6559,9198,15210,0.105,551
2020-03-27T01:30:21,42.805,6.029,CST-1368DR,6559,9198,15210,0.105,551
2020-03-27T01:33:23,42.805,6.029,CST-1368DR,6559,9197,15208,0.106,551
2020-03-27T01:36:24,42.805,6.029,CST-1368DR,6559,9196,15206,0.106,551
2020-03-27T01:39:26,42.805,6.029,CST-1368DR,6559,9198,15209,0.106,551
2020-03-27T01:42:28,42.805,6.029,CST-1368DR,6559,9197,15208,0.106,551
2020-03-27T01:45:29,42.805,6.029,CST-1368DR,6559,9197,15207,0.106,551
2020-03-27T01:48:31,42.805,6.029,CST-1368DR,6559,9198,15210,0.105,551
2020-03-27T01:51:33,42.805,6.029,CST-1368DR,6559,9197,15208,0.106,550
2020-03-27T01:54:35,42.805,6.029,CST-1368DR,6559,9198,15210,0.105,551
2020-03-27T01:57:36,42.805,6.029,CST-1368DR,6559,9197,15208,0.106,551
2020-03-27T02:00:38,42.805,6.029,CST-1368DR,6559,9197,15209,0.106,551
2020-03-27T02:03:40,42.805,6.029,CST-1368DR,6559,9196,15206,0.106,551
2020-03-27T02:06:41,42.805,6.029,CST-1368DR,6559,9196,15206,0.106,551
2020-03-27T02:09:43,42.805,6.029,CST-1368DR,6559,9194,15204,0.107,551
2020-03-27T02:12:45,42.805,6.029,CST-1368DR,6559,9197,15208,0.106,551
2020-03-27T02:15:47,42.805,6.029,CST-1368DR,6559,9197,15208,0.106,551
2020-03-27T02:18:48,42.805,6.029,CST-1368DR,6559,9198,15209,0.106,551
2020-03-27T02:21:50,42.805,6.029,CST-1368DR,6559,9198,15209,0.106,551
2020-03-27T02:24:52,42.805,6.029,CST-1368DR,6559,9198,15209,0.106,551
2020-03-27T02:27:54,42.805,6.029,CST-1368DR,6559,9198,15210,0.105,551
2020-03-27T02:30:55,42.805,6.029,CST-1368DR,6559,9192,15200,0.108,551
2020-03-27T02:33:57,42.805,6.029,CST-1368DR,6559,9197,15208,0.106,551
2020-03-27T02:36:59,42.805,6.029,CST-1368DR,6559,9198,15210,0.105,551
2020-03-27T02:40:00,42.805,6.029,CST-1368DR,6559,9195,15205,0.107,551
2020-03-27T02:43:02,42.805,6.029,CST-1368DR,6559,9196,15206,0.106,551
2020-03-27T02:46:04,42.805,6.029,CST-1368DR,6559,9195,15205,0.107,551
2020-03-27T02:49:06,42.805,6.029,CST-1368DR,6559,9196,15206,0.106,551
2020-03-27T02:52:07,42.805,6.029,CST-1368DR,6559,9196,15206,0.106,551
2020-03-27T02:55:09,42.805,6.029,CST-1368DR,6559,9197,15207,0.106,551
2020-03-27T02:58:11,42.805,6.029,CST-1368DR,6559,9196,15207,0.106,551
2020-03-27T03:01:12,42.805,6.029,CST-1368DR,6559,9195,15204,0.107,551
2020-03-27T03:04:14,42.805,6.029,CST-1368DR,6559,9196,15206,0.106,550
2020-03-27T03:07:16,42.805,6.029,CST-1368DR,6559,9197,15207,0.106,551
2020-03-27T03:10:17,42.805,6.029,CST-1368DR,6559,9195,15205,0.107,551
2020-03-27T03:13:19,42.805,6.029,CST-1368DR,6559,9197,15207,0.106,551
2020-03-27T03:16:21,42.805,6.029,CST-1368DR,6559,9197,15208,0.106,551
2020-03-27T03:19:23,42.805,6.029,CST-1368DR,6559,9196,15206,0.106,551
2020-03-27T03:22:24,42.805,6.029,CST-1368DR,6559,9196,15206,0.106,551
2020-03-27T03:25:26,42.805,6.029,CST-1368DR,6559,9195,15204,0.107,550
2020-03-27T03:28:28,42.805,6.029,CST-1368DR,6559,9195,15205,0.107,551
2020-03-27T03:31:29,42.805,6.029,CST-1368DR,6559,9193,15202,0.107,551
2020-03-27T03:34:31,42.805,6.029,CST-1368DR,6559,9196,15207,0.106,551
2020-03-27T03:37:33,42.805,6.029,CST-1368DR,6559,9197,15207,0.106,551
2020-03-27T03:40:35,42.805,6.029,CST-1368DR,6559,9196,15207,0.106,550
2020-03-27T03:43:36,42.805,6.029,CST-1368DR,6559,9197,15207,0.106,551
2020-03-27T03:46:38,42.805,6.029,CST-1368DR,6559,9195,15204,0.107,551
2020-03-27T03:49:40,42.805,6.029,CST-1368DR,6559,9196,15207,0.106,551
2020-03-27T03:52:41,42.805,6.029,CST-1368DR,6559,9197,15208,0.106,551
2020-03-27T03:55:43,42.805,6.029,CST-1368DR,6559,9196,15206,0.106,551
2020-03-27T03:58:45,42.805,6.029,CST-1368DR,6559,9197,15208,0.106,551
2020-03-27T04:01:46,42.805,6.029,CST-1368DR,6559,9197,15207,0.106,551
2020-03-27T04:04:48,42.805,6.029,CST-1368DR,6559,9197,15208,0.106,551
2020-03-27T04:07:50,42.805,6.029,CST-1368DR,6559,9197,15207,0.106,551
2020-03-27T04:10:52,42.805,6.029,CST-1368DR,6559,9197,15207,0.106,551
2020-03-27T04:13:53,42.805,6.029,CST-1368DR,6559,9194,15204,0.107,551
2020-03-27T04:16:55,42.805,6.029,CST-1368DR,6559,9196,15206,0.106,551
2020-03-27T04:19:57,42.805,6.029,CST-1368DR,6559,9194,15204,0.107,551
2020-03-27T04:22:58,42.805,6.029,CST-1368DR,6559,9197,15208,0.106,551
2020-03-27T04:26:00,42.805,6.029,CST-1368DR,6558,9195,15208,0.106,550
2020-03-27T04:29:02,42.805,6.029,CST-1368DR,6558,9195,15207,0.106,551
2020-03-27T04:32:04,42.805,6.029,CST-1368DR,6559,9197,15208,0.106,551
2020-03-27T04:35:05,42.805,6.029,CST-1368DR,6558,9196,15209,0.106,551
2020-03-27T04:38:07,42.805,6.029,CST-1368DR,6559,9197,15208,0.106,551
2020-03-27T04:41:09,42.805,6.029,CST-1368DR,6559,9196,15206,0.106,551
2020-03-27T04:44:10,42.805,6.029,CST-1368DR,6558,9196,15208,0.106,551
2020-03-27T04:47:12,42.805,6.029,CST-1368DR,6558,9197,15210,0.105,551
2020-03-27T04:50:14,42.805,6.029,CST-1368DR,6558,9191,15201,0.108,551
2020-03-27T04:53:15,42.805,6.029,CST-1368DR,6559,9196,15206,0.106,551
2020-03-27T04:56:17,42.805,6.029,CST-1368DR,6558,9195,15207,0.106,551
2020-03-27T04:59:19,42.805,6.029,CST-1368DR,6558,9197,15210,0.105,551
2020-03-27T05:02:21,42.805,6.029,CST-1368DR,6558,9197,15210,0.105,551
2020-03-27T05:05:22,42.805,6.029,CST-1368DR,6558,9197,15210,0.105,551
2020-03-27T05:08:24,42.805,6.029,CST-1368DR,6558,9197,15210,0.105,551
2020-03-27T05:11:26,42.805,6.029,CST-1368DR,6558,9196,15208,0.106,551
2020-03-27T05:14:27,42.805,6.029,CST-1368DR,6558,9195,15208,0.106,551
2020-03-27T05:17:29,42.805,6.029,CST-1368DR,6558,9197,15210,0.105,550
2020-03-27T05:20:31,42.805,6.029,CST-1368DR,6558,9197,15210,0.105,551
2020-03-27T05:23:32,42.805,6.029,CST-1368DR,6558,9196,15209,0.106,550
2020-03-27T05:26:34,42.805,6.029,CST-1368DR,6558,9196,15208,0.106,551
2020-03-27T05:29:36,42.805,6.029,CST-1368DR,6558,9194,15205,0.107,551
2020-03-27T05:32:37,42.805,6.029,CST-1368DR,6558,9196,15209,0.106,550
2020-03-27T05:35:39,42.805,6.029,CST-1368DR,6558,9196,15208,0.106,551
2020-03-27T05:38:41,42.805,6.029,CST-1368DR,6558,9196,15209,0.106,550
2020-03-27T05:41:42,42.805,6.029,CST-1368DR,6558,9195,15207,0.106,551
2020-03-27T05:44:44,42.805,6.029,CST-1368DR,6558,9196,15208,0.106,551
2020-03-27T05:47:46,42.805,6.029,CST-1368DR,6558,9197,15210,0.105,551
2020-03-27T05:50:48,42.805,6.029,CST-1368DR,6558,9195,15208,0.106,551
2020-03-27T05:53:49,42.805,6.029,CST-1368DR,6558,9195,15208,0.106,551
2020-03-27T05:56:51,42.805,6.029,CST-1368DR,6558,9196,15209,0.106,551
2020-03-27T05:59:53,42.805,6.029,CST-1368DR,6558,9197,15210,0.105,551
2020-03-27T06:02:54,42.805,6.029,CST-1368DR,6558,9196,15208,0.106,551
2020-03-27T06:05:56,42.805,6.029,CST-1368DR,6558,9195,15207,0.106,551
2020-03-27T06:08:58,42.805,6.029,CST-1368DR,6558,9196,15209,0.106,550
2020-03-27T06:12:00,42.805,6.029,CST-1368DR,6558,9195,15207,0.106,551
2020-03-27T06:15:01,42.805,6.029,CST-1368DR,6558,9196,15208,0.106,551
2020-03-27T06:18:03,42.805,6.029,CST-1368DR,6558,9196,15208,0.106,551
2020-03-27T06:21:05,42.805,6.029,CST-1368DR,6558,9196,15208,0.106,551
2020-03-27T06:24:06,42.805,6.029,CST-1368DR,6558,9196,15208,0.106,551
2020-03-27T06:27:08,42.805,6.029,CST-1368DR,6558,9195,15207,0.106,551
2020-03-27T06:30:10,42.805,6.029,CST-1368DR,6558,9195,15207,0.106,551
2020-03-27T06:33:11,42.805,6.029,CST-1368DR,6558,9195,15208,0.106,551
2020-03-27T06:36:13,42.805,6.029,CST-1368DR,6558,9197,15210,0.105,551
2020-03-27T06:39:15,42.805,6.029,CST-1368DR,6558,9196,15208,0.106,550
2020-03-27T06:42:16,42.805,6.029,CST-1368DR,6558,9197,15210,0.105,550
2020-03-27T06:45:18,42.805,6.029,CST-1368DR,6558,9196,15208,0.106,550
2020-03-27T06:48:20,42.805,6.029,CST-1368DR,6558,9196,15209,0.106,551
2020-03-27T06:51:22,42.805,6.029,CST-1368DR,6558,9197,15210,0.105,551
2020-03-27T06:54:23,42.805,6.029,CST-1368DR,6558,9194,15206,0.106,551
2020-03-27T06:57:25,42.805,6.029,CST-1368DR,6558,9196,15208,0.106,551
2020-03-27T07:00:27,42.805,6.029,CST-1368DR,6558,9196,15209,0.106,550
2020-03-27T07:03:28,42.805,6.029,CST-1368DR,6558,9195,15208,0.106,551
2020-03-27T07:06:30,42.805,6.029,CST-1368DR,6558,9197,15210,0.105,551
2020-03-27T07:09:32,42.805,6.029,CST-1368DR,6558,9195,15207,0.106,551
2020-03-27T07:12:34,42.805,6.029,CST-1368DR,6558,9191,15201,0.108,551
2020-03-27T07:15:35,42.805,6.029,CST-1368DR,6558,9197,15210,0.105,551
2020-03-27T07:18:37,42.805,6.029,CST-1368DR,6558,9196,15208,0.106,551
2020-03-27T07:21:39,42.805,6.029,CST-1368DR,6558,9194,15205,0.107,551
2020-03-27T07:24:40,42.805,6.029,CST-1368DR,6558,9195,15208,0.106,550
2020-03-27T07:27:42,42.805,6.029,CST-1368DR,6558,9195,15208,0.106,551
2020-03-27T07:30:44,42.805,6.029,CST-1368DR,6558,9194,15205,0.107,551
2020-03-27T07:33:45,42.805,6.029,CST-1368DR,6558,9195,15207,0.106,551
2020-03-27T07:36:47,42.805,6.029,CST-1368DR,6558,9196,15209,0.106,550
2020-03-27T07:39:49,42.805,6.029,CST-1368DR,6558,9196,15208,0.106,551
2020-03-27T07:42:50,42.805,6.029,CST-1368DR,6558,9194,15206,0.106,551
2020-03-27T07:45:52,42.805,6.029,CST-1368DR,6558,9196,15209,0.106,550
2020-03-27T07:48:54,42.805,6.029,CST-1368DR,6558,9197,15210,0.105,550
2020-03-27T07:51:55,42.805,6.029,CST-1368DR,6558,9196,15208,0.106,551
2020-03-27T07:54:57,42.805,6.029,CST-1368DR,6558,9197,15210,0.105,551
2020-03-27T07:57:59,42.805,6.029,CST-1368DR,6558,9196,15209,0.106,551
2020-03-27T08:01:01,42.805,6.029,CST-1368DR,6558,9193,15204,0.107,551
2020-03-27T08:04:02,42.805,6.029,CST-1368DR,6558,9197,15210,0.105,551
2020-03-27T08:07:04,42.805,6.029,CST-1368DR,6558,9195,15206,0.106,551
2020-03-27T08:10:06,42.805,6.029,CST-1368DR,6558,9195,15206,0.106,551
2020-03-27T08:13:07,42.805,6.029,CST-1368DR,6558,9195,15207,0.106,551
2020-03-27T08:16:09,42.805,6.029,CST-1368DR,6558,9196,15208,0.106,551
2020-03-27T08:19:11,42.805,6.029,CST-1368DR,6558,9195,15207,0.106,551
2020-03-27T08:22:12,42.805,6.029,CST-1368DR,6558,9196,15208,0.106,551
2020-03-27T08:25:14,42.805,6.029,CST-1368DR,6558,9195,15207,0.106,551
2020-03-27T08:28:16,42.805,6.029,CST-1368DR,6558,9195,15208,0.106,551
2020-03-27T08:31:18,42.805,6.029,CST-1368DR,6558,9196,15209,0.106,551
2020-03-27T08:34:19,42.805,6.029,CST-1368DR,6558,9196,15208,0.106,551
2020-03-27T08:37:21,42.805,6.029,CST-1368DR,6558,9194,15206,0.106,551
2020-03-27T08:40:23,42.805,6.029,CST-1368DR,6558,9196,15208,0.106,550
2020-03-27T08:43:24,42.805,6.029,CST-1368DR,6558,9195,15206,0.106,551
2020-03-27T08:46:26,42.805,6.029,CST-1368DR,6558,9195,15208,0.106,551
2020-03-27T08:49:28,42.805,6.029,CST-1368DR,6558,9195,15208,0.106,550
2020-03-27T08:52:30,42.805,6.029,CST-1368DR,6558,9192,15203,0.107,551
2020-03-27T08:55:31,42.805,6.029,CST-1368DR,6558,9195,15207,0.106,551
2020-03-27T08:58:33,42.805,6.029,CST-1368DR,6558,9194,15206,0.106,551
2020-03-27T09:01:35,42.805,6.029,CST-1368DR,6558,9195,15207,0.106,551
2020-03-27T09:04:36,42.805,6.029,CST-1368DR,6558,9194,15206,0.106,551
2020-03-27T09:07:38,42.805,6.029,CST-1368DR,6557,9194,15208,0.106,551
2020-03-27T09:10:40,42.805,6.029,CST-1368DR,6557,9195,15209,0.106,551
2020-03-27T09:13:41,42.805,6.029,CST-1368DR,6558,9193,15204,0.107,551
2020-03-27T09:16:43,42.805,6.029,CST-1368DR,6557,9194,15207,0.106,551
2020-03-27T09:19:45,42.805,6.029,CST-1368DR,6557,9194,15207,0.106,550
2020-03-27T09:22:46,42.805,6.029,CST-1368DR,6558,9193,15204,0.107,551
2020-03-27T09:25:48,42.805,6.029,CST-1368DR,6557,9195,15209,0.106,551
2020-03-27T09:28:50,42.805,6.029,CST-1368DR,6557,9190,15201,0.108,551
2020-03-27T09:31:52,42.805,6.029,CST-1368DR,6557,9195,15209,0.106,551
2020-03-27T09:34:53,42.805,6.029,CST-1368DR,6557,9195,15209,0.106,551
2020-03-27T09:37:55,42.805,6.029,CST-1368DR,6557,9192,15204,0.107,551
2020-03-27T09:40:57,42.805,6.029,CST-1368DR,6557,9195,15209,0.106,551
2020-03-27T09:43:58,42.805,6.029,CST-1368DR,6557,9195,15209,0.106,551
2020-03-27T09:47:00,42.805,6.029,CST-1368DR,6557,9195,15210,0.105,551
2020-03-27T09:50:02,42.805,6.029,CST-1368DR,6557,9194,15208,0.106,551
2020-03-27T09:53:03,42.805,6.029,CST-1368DR,6557,9194,15207,0.106,551
2020-03-27T09:56:05,42.805,6.029,CST-1368DR,6557,9196,15211,0.105,551
2020-03-27T09:59:07,42.805,6.029,CST-1368DR,6557,9196,15210,0.105,551
2020-03-27T10:02:08,42.805,6.029,CST-1368DR,6557,9195,15209,0.106,551
2020-03-27T10:05:10,42.805,6.029,CST-1368DR,6557,9195,15209,0.106,551
2020-03-27T10:08:12,42.805,6.029,CST-1368DR,6557,9194,15208,0.106,551
2020-03-27T10:11:14,42.805,6.029,CST-1368DR,6557,9194,15208,0.106,550
2020-03-27T10:14:15,42.805,6.029,CST-1368DR,6557,9193,15206,0.106,551
2020-03-27T10:17:17,42.805,6.029,CST-1368DR,6557,9195,15209,0.106,551
2020-03-27T10:20:19,42.805,6.029,CST-1368DR,6557,9194,15207,0.106,551
2020-03-27T10:23:20,42.805,6.029,CST-1368DR,6557,9194,15207,0.106,551
2020-03-27T10:26:22,42.805,6.029,CST-1368DR,6557,9194,15207,0.106,551
2020-03-27T10:29:24,42.805,6.029,CST-1368DR,6557,9194,15208,0.106,551
2020-03-27T10:32:25,42.805,6.029,CST-1368DR,6557,9195,15209,0.106,551
2020-03-27T10:35:27,42.805,6.029,CST-1368DR,6557,9194,15208,0.106,551
2020-03-27T10:38:29,42.805,6.029,CST-1368DR,6557,9194,15208,0.106,551
2020-03-27T10:41:31,42.805,6.029,CST-1368DR,6557,9193,15206,0.106,551
2020-03-27T10:44:32,42.805,6.029,CST-1368DR,6557,9194,15208,0.106,551
2020-03-27T10:47:34,42.805,6.029,CST-1368DR,6557,9194,15208,0.106,550
2020-03-27T10:50:36,42.805,6.029,CST-1368DR,6557,9194,15208,0.106,551
2020-03-27T10:53:37,42.805,6.029,CST-1368DR,6557,9195,15209,0.106,550
2020-03-27T10:56:39,42.805,6.029,CST-1368DR,6557,9195,15209,0.106,550
2020-03-27T10:59:41,42.805,6.029,CST-1368DR,6557,9195,15209,0.106,551
2020-03-27T11:02:43,42.805,6.029,CST-1368DR,6557,9194,15208,0.106,551
2020-03-27T11:05:44,42.805,6.029,CST-1368DR,6557,9194,15207,0.106,551
2020-03-27T11:08:46,42.805,6.029,CST-1368DR,6557,9194,15208,0.106,551
2020-03-27T11:11:48,42.805,6.029,CST-1368DR,6557,9194,15207,0.106,551
2020-03-27T11:14:49,42.805,6.029,CST-1368DR,6557,9193,15206,0.106,551
2020-03-27T11:17:51,42.805,6.029,CST-1368DR,6557,9194,15207,0.106,551
2020-03-27T11:20:53,42.805,6.029,CST-1368DR,6557,9194,15208,0.106,551
2020-03-27T11:23:55,42.805,6.029,CST-1368DR,6557,9194,15208,0.106,551
2020-03-27T11:26:56,42.805,6.029,CST-1368DR,6557,9193,15206,0.106,551
2020-03-27T11:29:58,42.805,6.029,CST-1368DR,6557,9193,15206,0.106,551
2020-03-27T11:33:00,42.805,6.029,CST-1368DR,6557,9193,15206,0.106,551
2020-03-27T11:36:01,42.805,6.029,CST-1368DR,6557,9194,15207,0.106,551
2020-03-27T11:39:03,42.805,6.029,CST-1368DR,6557,9193,15206,0.106,551
2020-03-27T11:42:05,42.805,6.029,CST-1368DR,6557,9191,15203,0.107,551
2020-03-27T11:45:07,42.805,6.029,CST-1368DR,6557,9190,15201,0.108,551
2020-03-27T11:48:08,42.805,6.029,CST-1368DR,6557,9191,15203,0.107,551
2020-03-27T11:51:10,42.805,6.029,CST-1368DR,6557,9194,15208,0.106,551
2020-03-27T11:54:12,42.805,6.029,CST-1368DR,6557,9193,15205,0.107,551
2020-03-27T11:57:13,42.805,6.029,CST-1368DR,6557,9194,15208,0.106,551
2020-03-27T12:00:15,42.805,6.029,CST-1368DR,6557,9191,15202,0.107,551
2020-03-27T12:03:17,42.805,6.029,CST-1368DR,6557,9193,15206,0.106,550
2020-03-27T12:06:18,42.805,6.029,CST-1368DR,6557,9189,15199,0.108,551
2020-03-27T12:09:20,42.805,6.029,CST-1368DR,6557,9194,15207,0.106,551
2020-03-27T12:12:22,42.805,6.029,CST-1368DR,6557,9191,15203,0.107,551
2020-03-27T12:15:24,42.805,6.029,CST-1368DR,6557,9194,15208,0.106,551
2020-03-27T12:18:25,42.805,6.029,CST-1368DR,6557,9194,15207,0.106,551
2020-03-27T12:21:27,42.805,6.029,CST-1368DR,6557,9192,15204,0.107,551
2020-03-27T12:24:29,42.805,6.029,CST-1368DR,6557,9193,15206,0.106,551
2020-03-27T12:27:30,42.805,6.029,CST-1368DR,6557,9191,15203,0.107,551
2020-03-27T12:30:32,42.805,6.029,CST-1368DR,6557,9193,15205,0.107,551
2020-03-27T12:33:34,42.805,6.029,CST-1368DR,6557,9193,15206,0.106,551
2020-03-27T12:36:35,42.805,6.029,CST-1368DR,6557,9193,15205,0.107,551
2020-03-27T12:39:37,42.805,6.029,CST-1368DR,6557,9192,15204,0.107,551
2020-03-27T12:42:39,42.805,6.029,CST-1368DR,6557,9193,15206,0.106,551
2020-03-27T12:45:40,42.805,6.029,CST-1368DR,6557,9187,15195,0.109,551
2020-03-27T12:48:42,42.805,6.029,CST-1368DR,6557,9193,15206,0.106,551
2020-03-27T12:51:44,42.805,6.029,CST-1368DR,6557,9193,15205,0.107,551
2020-03-27T12:54:46,42.805,6.029,CST-1368DR,6557,9192,15205,0.107,550
2020-03-27T12:57:47,42.805,6.029,CST-1368DR,6557,9193,15206,0.106,551
2020-03-27T13:00:49,42.805,6.029,CST-1368DR,6557,9192,15205,0.107,551
2020-03-27T13:03:51,42.805,6.029,CST-1368DR,6557,9193,15206,0.106,551
2020-03-27T13:06:52,42.805,6.029,CST-1368DR,6557,9193,15205,0.107,551
2020-03-27T13:09:54,42.805,6.029,CST-1368DR,6557,9192,15205,0.107,551
2020-03-27T13:12:56,42.805,6.029,CST-1368DR,6557,9190,15201,0.108,551
2020-03-27T13:15:57,42.805,6.029,CST-1368DR,6557,9194,15207,0.106,551
2020-03-27T13:18:59,42.805,6.029,CST-1368DR,6557,9192,15204,0.107,551
2020-03-27T13:22:01,42.805,6.029,CST-1368DR,6557,9191,15202,0.107,551
2020-03-27T13:25:03,42.805,6.029,CST-1368DR,6557,9192,15204,0.107,551
2020-03-27T13:28:04,42.805,6.029,CST-1368DR,6557,9192,15204,0.107,551
2020-03-27T13:31:06,42.805,6.029,CST-1368DR,6557,9193,15205,0.107,551
2020-03-27T13:34:08,42.805,6.029,CST-1368DR,6557,9193,15205,0.107,551
2020-03-27T13:37:09,42.805,6.029,CST-1368DR,6557,9192,15204,0.107,551
2020-03-27T13:40:11,42.805,6.029,CST-1368DR,6557,9191,15203,0.107,551
2020-03-27T13:43:13,42.805,6.029,CST-1368DR,6557,9189,15199,0.108,551
2020-03-27T13:46:15,42.805,6.029,CST-1368DR,6557,9191,15203,0.107,551
2020-03-27T13:49:16,42.805,6.029,CST-1368DR,6557,9192,15204,0.107,551
2020-03-27T13:52:18,42.805,6.029,CST-1368DR,6557,9194,15207,0.106,551
2020-03-27T13:55:20,42.805,6.029,CST-1368DR,6557,9193,15205,0.107,551
2020-03-27T13:58:21,42.805,6.029,CST-1368DR,6557,9192,15204,0.107,551
2020-03-27T14:01:23,42.805,6.029,CST-1368DR,6557,9192,15204,0.107,551
2020-03-27T14:04:25,42.805,6.029,CST-1368DR,6557,9191,15203,0.107,551
2020-03-27T14:07:27,42.805,6.029,CST-1368DR,6557,9193,15205,0.107,551
2020-03-27T14:10:28,42.805,6.029,CST-1368DR,6557,9192,15204,0.107,551
2020-03-27T14:13:30,42.805,6.029,CST-1368DR,6557,9192,15204,0.107,551
2020-03-27T14:16:32,42.805,6.029,CST-1368DR,6557,9192,15204,0.107,550
2020-03-27T14:19:33,42.805,6.029,CST-1368DR,6557,9192,15205,0.107,551
2020-03-27T14:22:35,42.805,6.029,CST-1368DR,6557,9192,15204,0.107,551
2020-03-27T14:25:37,42.805,6.029,CST-1368DR,6556,9192,15207,0.106,551
2020-03-27T14:28:38,42.805,6.029,CST-1368DR,6557,9192,15204,0.107,551
2020-03-27T14:31:40,42.805,6.029,CST-1368DR,6557,9192,15204,0.107,551
2020-03-27T14:34:42,42.805,6.029,CST-1368DR,6556,9191,15205,0.107,550
2020-03-27T14:37:43,42.805,6.029,CST-1368DR,6556,9192,15206,0.106,550
2020-03-27T14:40:45,42.805,6.029,CST-1368DR,6556,9192,15207,0.106,551
2020-03-27T14:43:47,42.805,6.029,CST-1368DR,6556,9192,15207,0.106,551
2020-03-27T14:46:48,42.805,6.029,CST-1368DR,6556,9192,15206,0.106,551
2020-03-27T14:49:50,42.805,6.029,CST-1368DR,6556,9191,15204,0.107,551
2020-03-27T14:52:52,42.805,6.029,CST-1368DR,6556,9192,15207,0.106,551
2020-03-27T14:55:54,42.805,6.029,CST-1368DR,6556,9192,15207,0.106,551
2020-03-27T14:58:55,42.805,6.029,CST-1368DR,6556,9193,15207,0.106,551
2020-03-27T15:01:57,42.805,6.029,CST-1368DR,6556,9193,15207,0.106,551
2020-03-27T15:04:59,42.805,6.029,CST-1368DR,6557,9194,15207,0.106,551
2020-03-27T15:08:00,42.805,6.029,CST-1368DR,6556,9194,15209,0.106,551
2020-03-27T15:11:02,42.805,6.029,CST-1368DR,6556,9191,15205,0.107,551
2020-03-27T15:14:04,42.805,6.029,CST-1368DR,6556,9193,15207,0.106,551
2020-03-27T15:17:06,42.805,6.029,CST-1368DR,6556,9192,15207,0.106,551
2020-03-27T15:20:07,42.805,6.029,CST-1368DR,6556,9193,15208,0.106,551
2020-03-27T15:23:09,42.805,6.029,CST-1368DR,6556,9194,15209,0.106,550
2020-03-27T15:26:11,42.805,6.029,CST-1368DR,6556,9192,15207,0.106,551
2020-03-27T15:29:12,42.805,6.029,CST-1368DR,6556,9192,15207,0.106,551
2020-03-27T15:32:14,42.805,6.029,CST-1368DR,6556,9191,15205,0.107,551
2020-03-27T15:35:16,42.805,6.029,CST-1368DR,6556,9192,15207,0.106,551
2020-03-27T15:38:18,42.805,6.029,CST-1368DR,6556,9193,15207,0.106,551
2020-03-27T15:41:19,42.805,6.029,CST-1368DR,6556,9192,15206,0.106,551
2020-03-27T15:44:21,42.805,6.029,CST-1368DR,6556,9192,15207,0.106,551
2020-03-27T15:47:23,42.805,6.029,CST-1368DR,6556,9193,15208,0.106,551
2020-03-27T15:50:24,42.805,6.029,CST-1368DR,6556,9192,15207,0.106,551
2020-03-27T15:53:26,42.805,6.029,CST-1368DR,6556,9193,15209,0.106,551
2020-03-27T15:56:28,42.805,6.029,CST-1368DR,6556,9193,15209,0.106,551
2020-03-27T15:59:29,42.805,6.029,CST-1368DR,6556,9192,15207,0.106,551
2020-03-27T16:02:31,42.805,6.029,CST-1368DR,6556,9193,15209,0.106,551
2020-03-27T16:05:33,42.805,6.029,CST-1368DR,6556,9192,15207,0.106,551
2020-03-27T16:08:35,42.805,6.029,CST-1368DR,6556,9194,15210,0.105,551
2020-03-27T16:11:36,42.805,6.029,CST-1368DR,6556,9192,15206,0.106,551
2020-03-27T16:14:38,42.805,6.029,CST-1368DR,6556,9193,15209,0.106,551
2020-03-27T16:17:40,42.805,6.029,CST-1368DR,6556,9193,15208,0.106,551
2020-03-27T16:20:41,42.805,6.029,CST-1368DR,6556,9190,15204,0.107,551
2020-03-27T16:23:43,42.805,6.029,CST-1368DR,6556,9193,15207,0.106,551
2020-03-27T16:26:45,42.805,6.029,CST-1368DR,6556,9191,15205,0.107,551
2020-03-27T16:29:47,42.805,6.029,CST-1368DR,6556,9193,15209,0.106,551
2020-03-27T16:32:48,42.805,6.029,CST-1368DR,6556,9192,15207,0.106,551
2020-03-27T16:35:50,42.805,6.029,CST-1368DR,6556,9193,15207,0.106,551
2020-03-27T16:38:52,42.805,6.029,CST-1368DR,6556,9193,15208,0.106,551
2020-03-27T16:41:53,42.805,6.029,CST-1368DR,6556,9193,15207,0.106,551
2020-03-27T16:44:55,42.805,6.029,CST-1368DR,6556,9192,15207,0.106,551
2020-03-27T16:47:57,42.805,6.029,CST-1368DR,6556,9192,15207,0.106,551
2020-03-27T16:50:59,42.805,6.029,CST-1368DR,6556,9192,15207,0.106,551
2020-03-27T16:54:00,42.805,6.029,CST-1368DR,6556,9192,15206,0.106,551